Tracking 19576 objects as of 16-Feb-2019
HD Live streaming from Space Station
objects crossing your sky now

THORAD DELTA 1 DEB

Track THORAD DELTA 1 DEB now!
10-day predictions


NORAD ID: 8140
Int'l Code: 1974-089J
Perigee: 1,451.9 km
Apogee: 1,519.6 km
Inclination: 101.7 °
Period: 115.5 minutes
Semi major axis: 7856 km
RCS: 0.4114 m2 (medium)
Launch date: November 15, 1974
Source: United States (US)
Launch site: AIR FORCE WESTERN TEST RANGE (AFWTR)

Note: This is SATELLITE DEBRIS
aabbcc
Your satellite tracking list
Your tracking list is empty




NASA's NSSDC Master Catalog

Two Line Element Set (TLE):
1  8140U 74089J   19047.51028223 -.00000038  00000-0  40731-4 0  9996
2  8140 101.6568   8.4276 0043069 243.4126 230.9375 12.46636252 13980
Source of the keplerian elements: AFSPC